Weather History for KIWA - January, 2013

Change the Weather History Date:

Sunday, January 20, 2013

  Actual Average Record
Temperature  
Mean Temperature 56 °F -  
Max Temperature 75 °F 65 °F 84 °F (2009)
Min Temperature 37 °F 42 °F 30 °F (2002)
Degree Days  
Heating Degree Days 9    
Growing Degree Days 6 (Base 50)    
Moisture  
Dew Point 24 °F    
Average Humidity 39    
Maximum Humidity 56    
Minimum Humidity 11    
Precipitation  
Precipitation 0.00 in - - ()
Sea Level Pressure  
Sea Level Pressure 30.11 in    
Wind  
Wind Speed 4 mph (ESE)    
Max Wind Speed 8 mph    
Max Gust Speed -    
Visibility 10 miles    
Events      
Averages and records for this station are not official NWS values.
T = Trace of Precipitation, MM = Missing Value Source: NWS Daily Summary

Daily Weather History Graph

Daily Weather History Graph

Search for Another Location

Airport or City:

Trip Planner

Search our weather history database for the weather conditions in past years. The results will help you decide how hot, cold, wet, or windy it might be!

Date:

Astronomy

Jan. 20, 2013 Rise Set
Actual Time 7:28 AM MST 5:47 PM MST
Civil Twilight 7:02 AM MST 6:13 PM MST
Nautical Twilight 6:31 AM MST 6:44 PM MST
Astronomical Twilight 6:02 AM MST 7:13 PM MST
Moon 12:49 PM MST (1/20) 2:05 AM MST (1/20)
Length of Visible Light 11h 11m
Length of Day
10h 18m
Waxing Gibbous, 67% of the Moon is Illuminated
Jan 20
Waxing Gibbous
Jan 26
Full
Feb 3
Last Quarter
Feb 10
New
Feb 17
First Quarter

Hourly Weather History & Observations

Time (MST) Temp. Windchill Dew Point Humidity Pressure Visibility Wind Dir Wind Speed Gust Speed Precip Events Conditions
12:15 AM 44.6 °F 42.2 °F 24.8 °F 46% 30.16 in 5.0 mi ESE 4.6 mph - N/A   Haze
12:35 AM 42.8 °F 38.6 °F 24.8 °F 49% 30.16 in 2.5 mi ESE 6.9 mph - N/A   Haze
12:55 AM 42.8 °F 40.1 °F 24.8 °F 49% 30.16 in 2.0 mi ESE 4.6 mph - N/A   Haze
1:15 AM 42.8 °F 39.3 °F 24.8 °F 49% 30.16 in 7.0 mi ESE 5.8 mph - N/A   Clear
1:35 AM 42.8 °F 39.3 °F 24.8 °F 49% 30.17 in 10.0 mi ESE 5.8 mph - N/A   Clear
1:55 AM 42.8 °F 39.3 °F 26.6 °F 53% 30.17 in 5.0 mi ESE 5.8 mph - N/A   Haze
2:15 AM 42.8 °F 38.6 °F 26.6 °F 53% 30.17 in 3.0 mi East 6.9 mph - N/A   Haze
2:35 AM 42.8 °F 38.6 °F 24.8 °F 49% 30.16 in 10.0 mi ESE 6.9 mph - N/A   Clear
2:55 AM 42.8 °F 39.3 °F 24.8 °F 49% 30.16 in 5.0 mi SE 5.8 mph - N/A   Haze
3:15 AM 41.0 °F 38.0 °F 23.0 °F 49% 30.16 in 2.5 mi East 4.6 mph - N/A   Haze
3:35 AM 41.0 °F 37.1 °F 24.8 °F 53% 30.16 in 1.8 mi East 5.8 mph - N/A   Haze
3:55 AM 42.8 °F 40.1 °F 23.0 °F 46% 30.16 in 7.0 mi SE 4.6 mph - N/A   Clear
4:15 AM 42.8 °F 41.1 °F 23.0 °F 46% 30.16 in 7.0 mi SE 3.5 mph - N/A   Clear
4:35 AM 41.0 °F 38.0 °F 23.0 °F 49% 30.16 in 10.0 mi SE 4.6 mph - N/A   Clear
4:55 AM 41.0 °F 38.0 °F 24.8 °F 53% 30.15 in 10.0 mi SSE 4.6 mph - N/A   Clear
5:15 AM 41.0 °F - 24.8 °F 53% 30.15 in 10.0 mi Calm Calm - N/A   Clear
5:47 AM 39.2 °F 37.0 °F 23.0 °F 52% 30.16 in 20.0 mi SSE 3.5 mph - N/A   Clear
6:54 AM 39.2 °F 35.9 °F 23.0 °F 52% 30.16 in 20.0 mi ENE 4.6 mph - N/A   Clear
7:47 AM 37.4 °F 33.8 °F 23.0 °F 56% 30.16 in 35.0 mi ESE 4.6 mph - N/A   Clear
8:47 AM 44.6 °F - 26.6 °F 49% 30.17 in 35.0 mi Calm Calm - N/A   Clear
9:47 AM 51.8 °F - 26.6 °F 38% 30.18 in 35.0 mi Variable 3.5 mph - N/A   Unknown
10:50 AM 57.2 °F - 23.0 °F 27% 30.17 in 35.0 mi West 4.6 mph - N/A   Clear
11:47 AM 64.4 °F - 21.2 °F 19% 30.15 in 35.0 mi Calm Calm - N/A   Clear
12:47 PM 66.2 °F - 19.4 °F 17% 30.11 in 35.0 mi NW 4.6 mph - N/A   Clear
1:50 PM 73.4 °F - 19.4 °F 13% 30.07 in 35.0 mi NW 4.6 mph - N/A   Clear
3:47 PM 75.2 °F - 17.6 °F 11% 30.03 in 45.0 mi NW 5.8 mph - N/A   Partly Cloudy
4:47 PM 73.4 °F - 17.6 °F 12% 30.02 in 45.0 mi NW 6.9 mph - N/A   Partly Cloudy
5:47 PM 66.2 °F - 21.2 °F 18% 30.03 in 20.0 mi WNW 5.8 mph - N/A   Scattered Clouds
6:47 PM 60.8 °F - 24.8 °F 25% 30.04 in 20.0 mi Calm Calm - N/A   Scattered Clouds
7:47 PM 60.8 °F - 24.8 °F 25% 30.05 in 20.0 mi Calm Calm - N/A   Scattered Clouds
7:55 PM 60.8 °F - 23.0 °F 23% 30.05 in 10.0 mi Calm Calm - N/A   Clear
8:15 PM 60.8 °F - 23.0 °F 23% 30.05 in 10.0 mi Calm Calm - N/A   Clear
8:35 PM 55.4 °F - 23.0 °F 29% 30.05 in 10.0 mi Calm Calm - N/A   Clear
8:47 PM 57.2 °F - 24.8 °F 29% 30.05 in 20.0 mi Calm Calm - N/A   Clear
8:55 PM 55.4 °F - 24.8 °F 31% 30.05 in 10.0 mi Calm Calm - N/A   Clear
9:15 PM 51.8 °F - 24.8 °F 35% 30.05 in 10.0 mi Calm Calm - N/A   Clear
9:35 PM 51.8 °F - 23.0 °F 33% 30.06 in 10.0 mi Calm Calm - N/A   Clear
9:55 PM 53.6 °F - 23.0 °F 30% 30.06 in 10.0 mi Calm Calm - N/A   Clear
10:15 PM 51.8 °F - 26.6 °F 38% 30.07 in 10.0 mi ESE 8.1 mph - N/A   Clear
10:35 PM 50.0 °F - 28.4 °F 43% 30.07 in 10.0 mi SSE 3.5 mph - N/A   Clear
10:55 PM 50.0 °F - 28.4 °F 43% 30.06 in 10.0 mi ESE 3.5 mph - N/A   Clear
11:15 PM 46.4 °F 45.2 °F 26.6 °F 46% 30.07 in 10.0 mi East 3.5 mph - N/A   Clear
11:35 PM 46.4 °F 42.9 °F 26.6 °F 46% 30.07 in 10.0 mi ESE 6.9 mph - N/A   Clear
11:55 PM 44.6 °F 40.2 °F 26.6 °F 49% 30.07 in 10.0 mi East 8.1 mph - N/A   Clear